Miscellaneous Local Product
Issued by NWS Hastings, NE

Home | Current Version | Previous Version | Text Only | Print | Product List | Glossary Off
Versions: 1 2 3 4 5 6 7 8 9 10 11 12 13 14 15 16 17 18 19 20 21 22 23 24 25 26 27 28 29 30 31 32 33 34 35 36 37 38 39 40 41 42 43 44 45 46 47 48 49 50

000
AXUS43 KGID 210702
MISGRI

GID CWA HOURLY WEATHER ROUNDUP
NATIONAL WEATHER SERVICE HASTINGS NE
200 AM CDT MON AUG 21 2017

NOTE: "FAIR" INDICATES FEW OR NO CLOUDS BELOW 12,000 FEET WITH NO
SIGNIFICANT WEATHER AND/OR OBSTRUCTIONS TO VISIBILITY.

...SOUTH CENTRAL NEBRASKA...

CITY           SKY/WX    TMP DP  RH WIND       PRES   REMARKS
GRAND ISLAND   PTCLDY    73  72  96 S6        29.94F
HASTINGS       CLOUDY    76  68  76 S7        29.96S
KEARNEY        CLOUDY    74  69  85 S9        29.96S
ORD            CLOUDY    70  67  90 CALM      29.94F
YORK           PTCLDY    77  73  88 S9        29.94F
AURORA         PTCLDY    76  73  89 S12       29.93F
LEXINGTON      FOG       70  69  95 CALM      29.97S VSB 3/4
HOLDREGE       CLOUDY    73  65  75 S5        29.97S
HEBRON         CLEAR     79  70  73 S12       29.95F

...NEBRASKA PANHANDLE...

CITY           SKY/WX    TMP DP  RH WIND       PRES   REMARKS
CHADRON        MOCLDY    68  59  73 E10       30.01F
ALLIANCE       PTCLDY    63  62  97 SE8       30.04R
SCOTTSBLUFF    CLEAR     67  63  87 E7        30.04R
SIDNEY         CLEAR     63  61  93 CALM      30.06F

...WESTERN AND NORTH CENTRAL NEBRASKA...

CITY           SKY/WX    TMP DP  RH WIND       PRES   REMARKS
VALENTINE      CLEAR     66  61  84 NE5       30.01S
AINSWORTH      MOCLDY    66  66 100 E3        30.00F
ONEILL         CLOUDY    69  69 100 NE3       29.97F
BROKEN BOW     PTCLDY    72  69  90 E5        29.97F
IMPERIAL       CLOUDY    68  66  93 SE6       29.99F
NORTH PLATTE   CLOUDY    74  73  97 E9        29.98F
MCCOOK         PTCLDY    76  65  68 SW8       29.96S

...EASTERN NEBRASKA...

CITY           SKY/WX    TMP DP  RH WIND       PRES   REMARKS
NORFOLK        CLEAR     70  68  93 E3        29.93F
SO SIOUX CITY  CLOUDY    70  69  97 CALM      29.96S
TEKAMAH        CLOUDY    72  64  76 E17G25    29.97R
COLUMBUS       PTCLDY    68  67  96 CALM      29.91F FOG
ALBION         CLOUDY    70  69  96 CALM      29.94F
OMAHA EPPLEY   CLOUDY    74  67  78 NE10      29.98R
OFFUTT AFB     MOCLDY    71  68  89 NE10      29.95R
MILLARD        PTCLDY    75  72  89 NE3       29.95R
LINCOLN        MOCLDY    80  72  76 S14       29.91F
NEBRASKA CITY  PTCLDY    76  76 100 SW10      29.93S
BEATRICE       CLEAR     81  73  76 S15G23    29.93F
FALLS CITY     CLEAR     80  75  84 S14       29.93F

...NORTHERN KANSAS...

CITY           SKY/WX    TMP DP  RH WIND       PRES   REMARKS
GOODLAND       MOCLDY    68  63  84 S10       30.02S
HILL CITY      CLOUDY    80  65  59 S10       29.98S
NORTON         SUNNY     75  57  53 S12       29.96
PHILLIPSBURG   CLEAR     79  64  61 S7        29.96S
SMITH CENTER   MOCLDY    75  66  73 S9        29.96S
HAYS           CLOUDY    79  68  69 S14       29.98F
RUSSELL        PTCLDY    79  69  71 S13       29.97S
CONCORDIA      PTCLDY    81  68  64 S13       29.96F
SALINA         PTCLDY    83  69  62 S10       29.98F
TOPEKA         CLEAR     77  73  87 S6        29.99F



USA.gov is the U.S. government's official web portal to all federal, state and local government web resources and services.